LVCTT SADF-SANE

Flight info

Callsign LVCTT
Flight time N/A
Altitude 18000
Route BIVAM UW8 ERE UT680 EDVIK
Aircraft C414/L-SBDFGRY/S

Departure

Time 2026-05-05 23:02
Airport San Fernando Airport (SADF)

Arrival

Time N/A
Airport Vicecomodoro Angel D. La Paz Aragonés Airport (SANE)
Time Latitude Longitude Altitude Speed Heading
2026-05-05 22:52 -34.45655 -58.58633 22 ft 0 kts 243°
2026-05-05 22:57 -34.45657 -58.58637 22 ft 6 kts 244°
2026-05-05 22:58 -34.45638 -58.58696 22 ft 9 kts 238°
2026-05-05 22:58 -34.45691 -58.58815 22 ft 18 kts 239°
2026-05-05 22:58 -34.45754 -58.58959 22 ft 20 kts 239°
2026-05-05 22:58 -34.45819 -58.59114 22 ft 21 kts 242°
2026-05-05 22:59 -34.45904 -58.59312 22 ft 26 kts 243°
2026-05-05 22:59 -34.45979 -58.59488 22 ft 21 kts 242°
2026-05-05 22:59 -34.46026 -58.59598 22 ft 0 kts 245°
2026-05-05 23:01 -34.46027 -58.59644 22 ft 14 kts 290°
2026-05-05 23:01 -34.45946 -58.59664 22 ft 14 kts 45°
2026-05-05 23:02 -34.45757 -58.59441 22 ft 66 kts 45°
2026-05-05 23:02 -34.45307 -58.58915 52 ft 107 kts 44°
2026-05-05 23:02 -34.44763 -58.58194 305 ft 121 kts 45°
2026-05-05 23:02 -34.44138 -58.57480 646 ft 126 kts 42°
2026-05-05 23:03 -34.43482 -58.56736 988 ft 132 kts 43°
2026-05-05 23:03 -34.42800 -58.55959 1278 ft 136 kts 43°
2026-05-05 23:03 -34.42113 -58.55173 1533 ft 136 kts 43°
2026-05-05 23:03 -34.41374 -58.54478 1781 ft 135 kts 20°
2026-05-05 23:04 -34.40475 -58.54529 2030 ft 132 kts 331°
2026-05-05 23:04 -34.39869 -58.55329 2280 ft 130 kts 305°
2026-05-05 23:04 -34.39209 -58.56048 2525 ft 130 kts 323°
2026-05-05 23:04 -34.38486 -58.56706 2780 ft 130 kts 322°
2026-05-05 23:05 -34.37767 -58.57371 3033 ft 130 kts 322°
2026-05-05 23:05 -34.37046 -58.58037 3277 ft 130 kts 322°
2026-05-05 23:05 -34.36323 -58.58703 3529 ft 131 kts 322°
2026-05-05 23:05 -34.35599 -58.59370 3781 ft 131 kts 322°
2026-05-05 23:06 -34.34871 -58.60038 4025 ft 131 kts 322°
2026-05-05 23:06 -34.34143 -58.60708 4275 ft 132 kts 322°
2026-05-05 23:06 -34.33413 -58.61380 4524 ft 132 kts 322°
2026-05-05 23:06 -34.32683 -58.62050 4773 ft 132 kts 322°
2026-05-05 23:07 -34.31947 -58.62726 4997 ft 135 kts 322°
2026-05-05 23:07 -34.31182 -58.63428 5156 ft 142 kts 322°
2026-05-05 23:07 -34.30378 -58.64165 5296 ft 148 kts 322°
2026-05-05 23:07 -34.29541 -58.64932 5437 ft 153 kts 322°
2026-05-05 23:08 -34.28679 -58.65724 5574 ft 157 kts 322°
2026-05-05 23:08 -34.27800 -58.66530 5712 ft 160 kts 322°
2026-05-05 23:08 -34.26904 -58.67353 5846 ft 163 kts 322°
2026-05-05 23:08 -34.26006 -58.68176 5976 ft 165 kts 322°
2026-05-05 23:09 -34.25096 -58.69010 6108 ft 162 kts 320°
2026-05-05 23:09 -34.24201 -58.69826 6245 ft 159 kts 320°
2026-05-05 23:09 -34.23322 -58.70633 6371 ft 158 kts 320°
2026-05-05 23:09 -34.22450 -58.71433 6495 ft 157 kts 320°
2026-05-05 23:10 -34.21584 -58.72227 6618 ft 156 kts 320°
2026-05-05 23:10 -34.20722 -58.73018 6736 ft 156 kts 320°
2026-05-05 23:10 -34.19856 -58.73811 6863 ft 156 kts 320°
2026-05-05 23:10 -34.18993 -58.74600 6987 ft 155 kts 320°
2026-05-05 23:11 -34.18135 -58.75386 7111 ft 155 kts 320°
2026-05-05 23:11 -34.17277 -58.76170 7234 ft 155 kts 320°
2026-05-05 23:11 -34.16426 -58.76947 7358 ft 155 kts 320°
2026-05-05 23:11 -34.15563 -58.77737 7484 ft 155 kts 320°
2026-05-05 23:12 -34.14703 -58.78523 7609 ft 155 kts 320°
2026-05-05 23:12 -34.13844 -58.79308 7733 ft 155 kts 320°
2026-05-05 23:12 -34.12984 -58.80095 7858 ft 155 kts 320°
2026-05-05 23:12 -34.12123 -58.80880 7983 ft 155 kts 321°
2026-05-05 23:13 -34.11261 -58.81666 8108 ft 155 kts 320°
2026-05-05 23:13 -34.10399 -58.82454 8233 ft 155 kts 320°
2026-05-05 23:13 -34.09539 -58.83238 8357 ft 155 kts 320°
2026-05-05 23:13 -34.08678 -58.84024 8482 ft 155 kts 320°
2026-05-05 23:14 -34.07820 -58.84807 8606 ft 155 kts 321°
2026-05-05 23:14 -34.06960 -58.85592 8729 ft 154 kts 320°
2026-05-05 23:14 -34.06132 -58.86346 8943 ft 149 kts 320°
2026-05-05 23:14 -34.05315 -58.87090 9157 ft 144 kts 320°
2026-05-05 23:15 -34.04524 -58.87811 9376 ft 141 kts 320°
2026-05-05 23:15 -34.03745 -58.88520 9588 ft 139 kts 320°
2026-05-05 23:15 -34.02979 -58.89218 9802 ft 137 kts 319°
2026-05-05 23:15 -34.02225 -58.89906 10018 ft 135 kts 319°
2026-05-05 23:16 -34.01478 -58.90586 10233 ft 134 kts 318°
2026-05-05 23:16 -34.00741 -58.91259 10450 ft 133 kts 318°
2026-05-05 23:16 -34.00005 -58.91926 10668 ft 132 kts 317°
2026-05-05 23:16 -33.99272 -58.92595 10888 ft 131 kts 318°
2026-05-05 23:17 -33.98551 -58.93250 11117 ft 131 kts 318°
2026-05-05 23:17 -33.97824 -58.93911 11326 ft 131 kts 317°
2026-05-05 23:17 -33.97102 -58.94562 11543 ft 129 kts 320°
2026-05-05 23:17 -33.96329 -58.95125 11723 ft 130 kts 320°
2026-05-05 23:18 -33.95567 -58.95736 11872 ft 133 kts 321°
2026-05-05 23:18 -33.94782 -58.96346 12024 ft 136 kts 321°
2026-05-05 23:18 -33.93979 -58.96963 12179 ft 138 kts 322°
2026-05-05 23:18 -33.93163 -58.97587 12337 ft 139 kts 321°
2026-05-05 23:19 -33.92342 -58.98219 12492 ft 140 kts 321°
2026-05-05 23:19 -33.91517 -58.98850 12648 ft 141 kts 321°
2026-05-05 23:19 -33.90687 -58.99486 12801 ft 142 kts 321°
2026-05-05 23:19 -33.89854 -59.00126 12955 ft 142 kts 321°
2026-05-05 23:20 -33.89015 -59.00766 13108 ft 143 kts 321°
2026-05-05 23:20 -33.88186 -59.01402 13260 ft 143 kts 321°
2026-05-05 23:20 -33.87340 -59.02049 13412 ft 144 kts 321°
2026-05-05 23:20 -33.86490 -59.02700 13564 ft 145 kts 321°
2026-05-05 23:21 -33.85638 -59.03351 13719 ft 145 kts 321°
2026-05-05 23:21 -33.84785 -59.04004 13870 ft 145 kts 320°
2026-05-05 23:21 -33.83933 -59.04653 14021 ft 145 kts 320°
2026-05-05 23:21 -33.83082 -59.05305 14170 ft 145 kts 320°
2026-05-05 23:22 -33.82232 -59.05956 14321 ft 145 kts 320°
2026-05-05 23:22 -33.81382 -59.06606 14471 ft 145 kts 320°
2026-05-05 23:22 -33.80531 -59.07255 14624 ft 145 kts 320°
2026-05-05 23:22 -33.79673 -59.07911 14767 ft 145 kts 320°
2026-05-05 23:23 -33.78821 -59.08561 14923 ft 145 kts 320°
2026-05-05 23:23 -33.77969 -59.09213 15074 ft 145 kts 320°
2026-05-05 23:23 -33.77119 -59.09862 15223 ft 145 kts 320°
2026-05-05 23:23 -33.76269 -59.10510 15374 ft 144 kts 320°
2026-05-05 23:24 -33.75420 -59.11158 15524 ft 144 kts 320°
2026-05-05 23:24 -33.74573 -59.11806 15681 ft 144 kts 320°
2026-05-05 23:24 -33.73738 -59.12442 15821 ft 144 kts 320°
2026-05-05 23:24 -33.72893 -59.13085 15971 ft 144 kts 320°
2026-05-05 23:25 -33.72052 -59.13728 16120 ft 143 kts 319°
2026-05-05 23:25 -33.71212 -59.14367 16269 ft 143 kts 319°
2026-05-05 23:25 -33.70373 -59.15007 16419 ft 143 kts 319°
2026-05-05 23:25 -33.69536 -59.15643 16569 ft 142 kts 319°
2026-05-05 23:26 -33.68705 -59.16276 16715 ft 141 kts 319°
2026-05-05 23:26 -33.67877 -59.16907 16862 ft 141 kts 319°
2026-05-05 23:26 -33.67051 -59.17538 17015 ft 141 kts 319°
2026-05-05 23:26 -33.66223 -59.18166 17164 ft 140 kts 319°
2026-05-05 23:27 -33.65400 -59.18793 17313 ft 140 kts 318°
2026-05-05 23:27 -33.64581 -59.19415 17503 ft 136 kts 318°
2026-05-05 23:27 -33.63813 -59.19995 17805 ft 125 kts 317°
2026-05-05 23:27 -33.63090 -59.20551 17945 ft 127 kts 316°
2026-05-05 23:28 -33.62312 -59.21148 17952 ft 138 kts 318°
2026-05-05 23:28 -33.61475 -59.21782 17962 ft 147 kts 318°
2026-05-05 23:28 -33.60592 -59.22453 17963 ft 154 kts 319°
2026-05-05 23:28 -33.59668 -59.23152 17962 ft 160 kts 319°
2026-05-05 23:29 -33.58718 -59.23873 17965 ft 164 kts 319°
2026-05-05 23:29 -33.57742 -59.24614 17964 ft 168 kts 319°
2026-05-05 23:29 -33.56746 -59.25368 17961 ft 171 kts 320°
2026-05-05 23:29 -33.55742 -59.26130 17961 ft 175 kts 320°
2026-05-05 23:30 -33.54704 -59.26917 17963 ft 178 kts 320°
2026-05-05 23:30 -33.53654 -59.27713 17962 ft 180 kts 320°
2026-05-05 23:30 -33.52592 -59.28519 17962 ft 182 kts 320°
2026-05-05 23:30 -33.51519 -59.29333 17954 ft 184 kts 320°
2026-05-05 23:31 -33.50436 -59.30153 17953 ft 184 kts 320°
2026-05-05 23:31 -33.49350 -59.30975 17953 ft 185 kts 320°
2026-05-05 23:31 -33.48262 -59.31799 17952 ft 185 kts 320°
2026-05-05 23:31 -33.47171 -59.32624 17953 ft 186 kts 320°
2026-05-05 23:32 -33.46078 -59.33452 17952 ft 186 kts 320°
2026-05-05 23:32 -33.44977 -59.34285 17953 ft 187 kts 320°
2026-05-05 23:32 -33.43877 -59.35116 17952 ft 187 kts 320°
2026-05-05 23:32 -33.42777 -59.35948 17952 ft 187 kts 320°
2026-05-05 23:33 -33.41677 -59.36780 17952 ft 187 kts 320°
2026-05-05 23:33 -33.40578 -59.37611 17952 ft 187 kts 320°
2026-05-05 23:33 -33.39479 -59.38441 17952 ft 187 kts 320°
2026-05-05 23:33 -33.38380 -59.39271 17952 ft 187 kts 321°
2026-05-05 23:34 -33.37294 -59.40091 17952 ft 187 kts 320°
2026-05-05 23:34 -33.36193 -59.40922 17952 ft 187 kts 320°
2026-05-05 23:34 -33.35092 -59.41754 17952 ft 187 kts 320°
2026-05-05 23:34 -33.33990 -59.42584 17953 ft 188 kts 320°
2026-05-05 23:35 -33.32885 -59.43417 17953 ft 187 kts 321°
2026-05-05 23:35 -33.31783 -59.44248 17953 ft 188 kts 321°
2026-05-05 23:35 -33.30677 -59.45081 17951 ft 187 kts 321°
2026-05-05 23:35 -33.29572 -59.45914 17951 ft 187 kts 321°
2026-05-05 23:36 -33.28470 -59.46744 17951 ft 187 kts 321°
2026-05-05 23:36 -33.27369 -59.47572 17951 ft 187 kts 321°
2026-05-05 23:36 -33.26270 -59.48400 17951 ft 187 kts 321°
2026-05-05 23:36 -33.25170 -59.49228 17951 ft 187 kts 321°
2026-05-05 23:37 -33.24072 -59.50055 17951 ft 187 kts 321°
2026-05-05 23:37 -33.22988 -59.50870 17951 ft 187 kts 321°
2026-05-05 23:37 -33.21887 -59.51697 17951 ft 187 kts 321°
2026-05-05 23:37 -33.20789 -59.52523 17951 ft 187 kts 321°
2026-05-05 23:38 -33.19689 -59.53350 17939 ft 187 kts 320°
2026-05-05 23:38 -33.18584 -59.54180 17940 ft 187 kts 321°
2026-05-05 23:38 -33.17481 -59.55008 17941 ft 187 kts 321°
2026-05-05 23:38 -33.16382 -59.55832 17940 ft 187 kts 321°
2026-05-05 23:39 -33.15285 -59.56656 17940 ft 186 kts 321°
2026-05-05 23:39 -33.14185 -59.57481 17940 ft 186 kts 321°
2026-05-05 23:39 -33.13086 -59.58305 17941 ft 187 kts 321°
2026-05-05 23:39 -33.11986 -59.59131 17945 ft 187 kts 321°
2026-05-05 23:40 -33.10898 -59.59952 17941 ft 189 kts 320°
2026-05-05 23:40 -33.09786 -59.60784 17941 ft 188 kts 321°
2026-05-05 23:40 -33.08677 -59.61610 17943 ft 188 kts 321°
2026-05-05 23:40 -33.07570 -59.62439 17944 ft 188 kts 321°
2026-05-05 23:41 -33.06463 -59.63267 17940 ft 188 kts 321°
2026-05-05 23:41 -33.05360 -59.64093 17944 ft 187 kts 321°
2026-05-05 23:41 -33.04257 -59.64919 17943 ft 187 kts 321°
2026-05-05 23:41 -33.03155 -59.65743 17939 ft 187 kts 321°
2026-05-05 23:42 -33.02052 -59.66569 17941 ft 187 kts 321°
2026-05-05 23:42 -33.00951 -59.67391 17940 ft 187 kts 321°
2026-05-05 23:42 -32.99849 -59.68215 17930 ft 187 kts 321°
2026-05-05 23:42 -32.98744 -59.69040 17930 ft 187 kts 321°
2026-05-05 23:43 -32.97642 -59.69864 17936 ft 187 kts 321°
2026-05-05 23:43 -32.96538 -59.70687 17940 ft 187 kts 321°
2026-05-05 23:43 -32.95436 -59.71511 17930 ft 187 kts 321°
2026-05-05 23:43 -32.94336 -59.72331 17930 ft 187 kts 321°
2026-05-05 23:44 -32.93234 -59.73154 17930 ft 187 kts 321°
2026-05-05 23:44 -32.92132 -59.73976 17929 ft 186 kts 321°
2026-05-05 23:44 -32.91033 -59.74795 17921 ft 187 kts 321°
2026-05-05 23:44 -32.89932 -59.75616 17923 ft 187 kts 321°
2026-05-05 23:45 -32.88831 -59.76436 17923 ft 187 kts 321°
2026-05-05 23:45 -32.87730 -59.77256 17923 ft 187 kts 321°
2026-05-05 23:45 -32.87002 -59.77798 17920 ft 187 kts 321°
2026-05-05 23:45 -32.85902 -59.78618 17923 ft 187 kts 321°
2026-05-05 23:46 -32.84800 -59.79438 17923 ft 187 kts 321°
2026-05-05 23:46 -32.83699 -59.80257 17923 ft 187 kts 321°
2026-05-05 23:46 -32.82596 -59.81077 17923 ft 187 kts 321°
2026-05-05 23:46 -32.81493 -59.81897 17919 ft 187 kts 321°
2026-05-05 23:47 -32.80389 -59.82718 17923 ft 187 kts 321°
2026-05-05 23:47 -32.79287 -59.83537 17924 ft 187 kts 321°
2026-05-05 23:47 -32.78183 -59.84358 17919 ft 187 kts 321°
2026-05-05 23:47 -32.77080 -59.85177 17923 ft 187 kts 321°
2026-05-05 23:48 -32.75977 -59.85995 17921 ft 187 kts 321°
2026-05-05 23:48 -32.74875 -59.86814 17923 ft 187 kts 321°
2026-05-05 23:48 -32.73772 -59.87632 17920 ft 187 kts 321°
2026-05-05 23:48 -32.72672 -59.88449 17923 ft 187 kts 321°
2026-05-05 23:49 -32.71567 -59.89268 17923 ft 187 kts 321°
2026-05-05 23:49 -32.70462 -59.90088 17924 ft 187 kts 321°
2026-05-05 23:49 -32.69356 -59.90907 17924 ft 187 kts 321°
2026-05-05 23:49 -32.68253 -59.91724 17924 ft 187 kts 321°
2026-05-05 23:50 -32.67158 -59.92536 17920 ft 188 kts 321°
2026-05-05 23:50 -32.66048 -59.93358 17925 ft 188 kts 321°
2026-05-05 23:50 -32.64937 -59.94180 17922 ft 188 kts 321°
2026-05-05 23:50 -32.63828 -59.95001 17920 ft 188 kts 321°
2026-05-05 23:51 -32.62720 -59.95821 17919 ft 188 kts 321°
2026-05-05 23:51 -32.61611 -59.96641 17925 ft 188 kts 321°
2026-05-05 23:51 -32.60503 -59.97461 17920 ft 188 kts 321°
2026-05-05 23:51 -32.59391 -59.98282 17926 ft 188 kts 321°
2026-05-05 23:52 -32.58282 -59.99102 17925 ft 188 kts 321°
2026-05-05 23:52 -32.57171 -59.99924 17921 ft 188 kts 321°
2026-05-05 23:52 -32.56058 -60.00746 17923 ft 189 kts 321°
2026-05-05 23:52 -32.54943 -60.01569 17922 ft 189 kts 321°
2026-05-05 23:53 -32.53842 -60.02381 17922 ft 189 kts 321°
2026-05-05 23:53 -32.52723 -60.03207 17923 ft 190 kts 321°
2026-05-05 23:53 -32.51605 -60.04031 17918 ft 189 kts 321°
2026-05-05 23:53 -32.50485 -60.04858 17924 ft 189 kts 321°
2026-05-05 23:54 -32.49368 -60.05681 17924 ft 189 kts 321°
2026-05-05 23:54 -32.48249 -60.06505 17922 ft 189 kts 321°
2026-05-05 23:54 -32.47129 -60.07331 17920 ft 189 kts 321°
2026-05-05 23:54 -32.46013 -60.08153 17924 ft 189 kts 321°
2026-05-05 23:55 -32.44898 -60.08975 17919 ft 189 kts 321°
2026-05-05 23:55 -32.43781 -60.09796 17923 ft 189 kts 321°
2026-05-05 23:55 -32.42666 -60.10617 17925 ft 189 kts 321°
2026-05-05 23:55 -32.41546 -60.11441 17921 ft 189 kts 321°
2026-05-05 23:56 -32.40428 -60.12264 17921 ft 189 kts 321°
2026-05-05 23:56 -32.39312 -60.13085 17920 ft 189 kts 321°
2026-05-05 23:56 -32.38194 -60.13906 17917 ft 189 kts 321°
2026-05-05 23:56 -32.37091 -60.14717 17922 ft 189 kts 321°
2026-05-05 23:57 -32.35977 -60.15535 17924 ft 188 kts 321°
2026-05-05 23:57 -32.34863 -60.16353 17923 ft 188 kts 321°
2026-05-05 23:57 -32.33751 -60.17171 17923 ft 188 kts 321°
2026-05-05 23:57 -32.32636 -60.17989 17921 ft 188 kts 321°
2026-05-05 23:58 -32.31522 -60.18807 17924 ft 188 kts 321°
2026-05-05 23:58 -32.30407 -60.19625 17924 ft 189 kts 321°
2026-05-05 23:58 -32.29292 -60.20444 17925 ft 189 kts 321°
2026-05-05 23:58 -32.28177 -60.21259 17925 ft 189 kts 321°
2026-05-05 23:59 -32.27062 -60.22077 17922 ft 189 kts 321°
2026-05-05 23:59 -32.25946 -60.22895 17921 ft 189 kts 321°
2026-05-05 23:59 -32.24830 -60.23712 17922 ft 189 kts 321°
2026-05-05 23:59 -32.23714 -60.24529 17924 ft 189 kts 321°
2026-05-06 00:00 -32.22598 -60.25347 17917 ft 189 kts 321°
2026-05-06 00:00 -32.21496 -60.26153 17921 ft 189 kts 321°
2026-05-06 00:00 -32.20368 -60.26979 17921 ft 189 kts 321°
2026-05-06 00:00 -32.19253 -60.27794 17924 ft 188 kts 321°
2026-05-06 00:01 -32.18153 -60.28599 17924 ft 188 kts 321°
2026-05-06 00:01 -32.17039 -60.29413 17920 ft 189 kts 321°
2026-05-06 00:01 -32.15925 -60.30227 17922 ft 189 kts 321°
2026-05-06 00:01 -32.14808 -60.31042 17924 ft 189 kts 321°
2026-05-06 00:02 -32.13691 -60.31859 17925 ft 189 kts 321°
2026-05-06 00:02 -32.12575 -60.32674 17924 ft 189 kts 321°
2026-05-06 00:02 -32.11458 -60.33490 17925 ft 189 kts 321°
2026-05-06 00:02 -32.10341 -60.34304 17918 ft 189 kts 321°
2026-05-06 00:03 -32.09225 -60.35118 17925 ft 189 kts 321°
2026-05-06 00:03 -32.08108 -60.35933 17924 ft 189 kts 322°
2026-05-06 00:03 -32.06992 -60.36747 17925 ft 189 kts 322°
2026-05-06 00:03 -32.05873 -60.37563 17922 ft 189 kts 322°
2026-05-06 00:04 -32.04756 -60.38376 17926 ft 189 kts 321°
2026-05-06 00:04 -32.03652 -60.39181 17926 ft 189 kts 322°
2026-05-06 00:04 -32.02535 -60.39995 17925 ft 189 kts 321°
2026-05-06 00:04 -32.01412 -60.40812 17924 ft 189 kts 321°
2026-05-06 00:05 -31.99173 -60.42441 17925 ft 189 kts 321°
2026-05-06 00:05 -31.98053 -60.43256 17925 ft 189 kts 321°
2026-05-06 00:05 -31.96931 -60.44072 17925 ft 189 kts 321°
2026-05-06 00:06 -31.95809 -60.44888 17924 ft 189 kts 321°
2026-05-06 00:06 -31.94704 -60.45691 17921 ft 189 kts 321°
2026-05-06 00:06 -31.93580 -60.46507 17925 ft 189 kts 322°
2026-05-06 00:06 -31.92462 -60.47319 17925 ft 189 kts 321°
2026-05-06 00:07 -31.91346 -60.48130 17924 ft 189 kts 321°
2026-05-06 00:07 -31.90225 -60.48944 17924 ft 189 kts 321°
2026-05-06 00:07 -31.89104 -60.49758 17924 ft 189 kts 321°
2026-05-06 00:07 -31.87981 -60.50572 17925 ft 189 kts 321°
2026-05-06 00:08 -31.86861 -60.51385 17925 ft 189 kts 321°
2026-05-06 00:08 -31.85739 -60.52199 17925 ft 190 kts 321°
2026-05-06 00:08 -31.84617 -60.53012 17925 ft 190 kts 321°
2026-05-06 00:08 -31.83493 -60.53826 17925 ft 190 kts 321°
2026-05-06 00:09 -31.82371 -60.54639 17921 ft 190 kts 321°
2026-05-06 00:09 -31.81247 -60.55453 17921 ft 190 kts 321°
2026-05-06 00:09 -31.80124 -60.56267 17925 ft 190 kts 321°
2026-05-06 00:09 -31.78996 -60.57084 17924 ft 190 kts 321°
2026-05-06 00:10 -31.77884 -60.57887 17920 ft 190 kts 321°
2026-05-06 00:10 -31.76756 -60.58704 17926 ft 192 kts 320°
2026-05-06 00:10 -31.75619 -60.59526 17920 ft 193 kts 320°
2026-05-06 00:10 -31.74474 -60.60354 17934 ft 193 kts 320°
2026-05-06 00:11 -31.73325 -60.61185 17939 ft 194 kts 320°
2026-05-06 00:11 -31.72174 -60.62017 17930 ft 195 kts 320°
2026-05-06 00:11 -31.71017 -60.62852 17931 ft 195 kts 320°
2026-05-06 00:11 -31.69858 -60.63689 17932 ft 195 kts 320°
2026-05-06 00:12 -31.68700 -60.64525 17933 ft 195 kts 320°
2026-05-06 00:12 -31.67539 -60.65362 17933 ft 196 kts 320°
2026-05-06 00:12 -31.66378 -60.66200 17935 ft 196 kts 320°
2026-05-06 00:12 -31.65215 -60.67039 17922 ft 197 kts 320°
2026-05-06 00:13 -31.64051 -60.67879 17919 ft 196 kts 320°
2026-05-06 00:13 -31.62887 -60.68718 17923 ft 196 kts 320°
2026-05-06 00:13 -31.61723 -60.69557 17923 ft 196 kts 320°
2026-05-06 00:13 -31.60563 -60.70393 17922 ft 196 kts 320°
2026-05-06 00:14 -31.59399 -60.71232 17922 ft 196 kts 320°
2026-05-06 00:14 -31.58234 -60.72069 17918 ft 196 kts 320°
2026-05-06 00:14 -31.57072 -60.72906 17922 ft 196 kts 320°
2026-05-06 00:14 -31.55928 -60.73730 17921 ft 196 kts 320°
2026-05-06 00:15 -31.54762 -60.74569 17921 ft 196 kts 320°
2026-05-06 00:15 -31.53597 -60.75405 17922 ft 196 kts 320°
2026-05-06 00:15 -31.52429 -60.76245 17922 ft 196 kts 320°
2026-05-06 00:15 -31.51265 -60.77083 17922 ft 196 kts 320°
2026-05-06 00:16 -31.50100 -60.77920 17922 ft 196 kts 320°
2026-05-06 00:16 -31.48933 -60.78759 17922 ft 197 kts 320°
2026-05-06 00:16 -31.47781 -60.79585 17923 ft 197 kts 320°
2026-05-06 00:16 -31.46614 -60.80423 17922 ft 197 kts 320°
2026-05-06 00:17 -31.45448 -60.81259 17922 ft 197 kts 320°
2026-05-06 00:17 -31.44280 -60.82097 17919 ft 197 kts 320°
2026-05-06 00:17 -31.43114 -60.82934 17922 ft 197 kts 320°
2026-05-06 00:17 -31.41948 -60.83770 17916 ft 196 kts 320°
2026-05-06 00:18 -31.40780 -60.84608 17921 ft 196 kts 320°
2026-05-06 00:18 -31.39610 -60.85446 17922 ft 197 kts 320°
2026-05-06 00:18 -31.38443 -60.86282 17921 ft 197 kts 320°
2026-05-06 00:18 -31.37292 -60.87107 17922 ft 196 kts 320°
2026-05-06 00:19 -31.36128 -60.87940 17922 ft 196 kts 320°
2026-05-06 00:19 -31.34962 -60.88774 17920 ft 197 kts 320°
2026-05-06 00:19 -31.33795 -60.89608 17922 ft 196 kts 320°
2026-05-06 00:19 -31.32631 -60.90442 17922 ft 196 kts 320°
2026-05-06 00:20 -31.31466 -60.91276 17922 ft 197 kts 320°
2026-05-06 00:20 -31.30298 -60.92112 17923 ft 197 kts 320°
2026-05-06 00:20 -31.29125 -60.92949 17923 ft 197 kts 320°
2026-05-06 00:20 -31.27959 -60.93782 17919 ft 197 kts 320°
2026-05-06 00:21 -31.26790 -60.94618 17915 ft 197 kts 320°
2026-05-06 00:21 -31.25620 -60.95454 17910 ft 197 kts 320°
2026-05-06 00:21 -31.24451 -60.96288 17908 ft 197 kts 321°
2026-05-06 00:21 -31.23279 -60.97123 17906 ft 197 kts 320°
2026-05-06 00:22 -31.22108 -60.97960 17907 ft 197 kts 321°
2026-05-06 00:22 -31.20938 -60.98794 17906 ft 197 kts 321°
2026-05-06 00:22 -31.19767 -60.99627 17904 ft 197 kts 320°
2026-05-06 00:22 -31.18598 -61.00461 17905 ft 197 kts 321°
2026-05-06 00:23 -31.17446 -61.01283 17908 ft 197 kts 320°
2026-05-06 00:23 -31.16278 -61.02115 17908 ft 197 kts 321°
2026-05-06 00:23 -31.15111 -61.02946 17908 ft 197 kts 320°
2026-05-06 00:23 -31.13940 -61.03780 17906 ft 197 kts 320°
2026-05-06 00:24 -31.12770 -61.04613 17908 ft 197 kts 320°
2026-05-06 00:24 -31.11602 -61.05443 17906 ft 196 kts 321°
2026-05-06 00:24 -31.10435 -61.06274 17907 ft 196 kts 320°
2026-05-06 00:24 -31.09266 -61.07107 17907 ft 196 kts 320°
2026-05-06 00:25 -31.08099 -61.07936 17907 ft 196 kts 321°
2026-05-06 00:25 -31.06932 -61.08764 17905 ft 196 kts 320°
2026-05-06 00:25 -31.05784 -61.09580 17908 ft 196 kts 321°
2026-05-06 00:25 -31.04618 -61.10409 17907 ft 196 kts 320°
2026-05-06 00:26 -31.03456 -61.11234 17907 ft 196 kts 321°
2026-05-06 00:26 -31.02292 -61.12059 17906 ft 196 kts 320°
2026-05-06 00:26 -31.01129 -61.12886 17905 ft 196 kts 320°
2026-05-06 00:26 -30.99966 -61.13711 17907 ft 195 kts 320°
2026-05-06 00:27 -30.98804 -61.14536 17906 ft 195 kts 320°
2026-05-06 00:27 -30.97645 -61.15357 17906 ft 195 kts 321°
2026-05-06 00:27 -30.96484 -61.16180 17906 ft 196 kts 320°
2026-05-06 00:27 -30.95321 -61.17005 17906 ft 196 kts 320°
2026-05-06 00:28 -30.94156 -61.17830 17906 ft 196 kts 320°
2026-05-06 00:28 -30.92991 -61.18655 17906 ft 196 kts 321°
2026-05-06 00:28 -30.91827 -61.19480 17904 ft 196 kts 321°
2026-05-06 00:28 -30.90659 -61.20306 17907 ft 196 kts 321°
2026-05-06 00:29 -30.89492 -61.21132 17907 ft 197 kts 321°
2026-05-06 00:29 -30.88323 -61.21963 17907 ft 197 kts 321°
2026-05-06 00:29 -30.87151 -61.22787 17907 ft 196 kts 321°
2026-05-06 00:29 -30.85983 -61.23612 17907 ft 196 kts 321°
2026-05-06 00:30 -30.84816 -61.24438 17907 ft 197 kts 321°
2026-05-06 00:30 -30.83646 -61.25265 17907 ft 197 kts 321°
2026-05-06 00:30 -30.82490 -61.26082 17907 ft 196 kts 321°
2026-05-06 00:30 -30.81320 -61.26908 17908 ft 197 kts 321°
2026-05-06 00:31 -30.80148 -61.27736 17908 ft 197 kts 321°
2026-05-06 00:31 -30.78976 -61.28563 17906 ft 197 kts 321°
2026-05-06 00:31 -30.77805 -61.29390 17908 ft 197 kts 321°
2026-05-06 00:31 -30.76633 -61.30217 17908 ft 197 kts 321°
2026-05-06 00:32 -30.75462 -61.31043 17909 ft 197 kts 321°
2026-05-06 00:32 -30.74289 -61.31869 17908 ft 196 kts 321°
2026-05-06 00:32 -30.73121 -61.32694 17906 ft 196 kts 321°
2026-05-06 00:32 -30.71949 -61.33519 17908 ft 197 kts 321°
2026-05-06 00:33 -30.71175 -61.34064 17906 ft 197 kts 321°
2026-05-06 00:33 -30.70005 -61.34888 17908 ft 197 kts 321°
2026-05-06 00:33 -30.68833 -61.35713 17907 ft 197 kts 321°
2026-05-06 00:33 -30.67664 -61.36536 17908 ft 197 kts 321°
2026-05-06 00:34 -30.66494 -61.37359 17908 ft 197 kts 321°
2026-05-06 00:34 -30.65321 -61.38184 17908 ft 197 kts 321°
2026-05-06 00:34 -30.64152 -61.39008 17907 ft 197 kts 321°
2026-05-06 00:34 -30.62979 -61.39832 17908 ft 197 kts 321°
2026-05-06 00:35 -30.61805 -61.40657 17908 ft 197 kts 321°
2026-05-06 00:35 -30.60633 -61.41480 17908 ft 197 kts 321°
2026-05-06 00:35 -30.59460 -61.42303 17908 ft 197 kts 321°
2026-05-06 00:35 -30.58288 -61.43127 17908 ft 197 kts 321°
2026-05-06 00:36 -30.57118 -61.43948 17920 ft 196 kts 321°
2026-05-06 00:36 -30.55950 -61.44769 17919 ft 196 kts 321°
2026-05-06 00:36 -30.54780 -61.45590 17918 ft 196 kts 321°
2026-05-06 00:36 -30.53609 -61.46411 17914 ft 197 kts 321°
2026-05-06 00:37 -30.52439 -61.47232 17919 ft 197 kts 321°
2026-05-06 00:37 -30.51267 -61.48053 17918 ft 197 kts 321°
2026-05-06 00:37 -30.50094 -61.48876 17917 ft 197 kts 321°
2026-05-06 00:37 -30.48936 -61.49687 17917 ft 197 kts 321°
2026-05-06 00:38 -30.47761 -61.50510 17916 ft 197 kts 321°
2026-05-06 00:38 -30.46585 -61.51334 17918 ft 197 kts 321°
2026-05-06 00:38 -30.45409 -61.52157 17919 ft 197 kts 322°
2026-05-06 00:38 -30.44232 -61.52980 17919 ft 198 kts 321°
2026-05-06 00:39 -30.43054 -61.53805 17919 ft 198 kts 322°
2026-05-06 00:39 -30.41879 -61.54627 17919 ft 197 kts 322°
2026-05-06 00:39 -30.40703 -61.55450 17919 ft 198 kts 322°
2026-05-06 00:39 -30.39523 -61.56274 17919 ft 198 kts 322°
2026-05-06 00:40 -30.38346 -61.57097 17918 ft 198 kts 322°
2026-05-06 00:40 -30.37167 -61.57920 17915 ft 198 kts 321°
2026-05-06 00:40 -30.35989 -61.58743 17920 ft 198 kts 321°
2026-05-06 00:40 -30.34825 -61.59556 17920 ft 198 kts 322°
2026-05-06 00:41 -30.33646 -61.60379 17920 ft 198 kts 322°
2026-05-06 00:41 -30.32467 -61.61202 17920 ft 198 kts 322°
2026-05-06 00:41 -30.31287 -61.62025 17921 ft 198 kts 322°
2026-05-06 00:41 -30.30106 -61.62848 17921 ft 198 kts 322°
2026-05-06 00:42 -30.28926 -61.63672 17921 ft 198 kts 322°
2026-05-06 00:42 -30.27748 -61.64493 17920 ft 197 kts 322°
2026-05-06 00:42 -30.26568 -61.65316 17921 ft 198 kts 322°
2026-05-06 00:42 -30.25387 -61.66139 17921 ft 198 kts 322°
2026-05-06 00:43 -30.24208 -61.66959 17920 ft 198 kts 322°
2026-05-06 00:43 -30.23031 -61.67780 17920 ft 197 kts 322°
2026-05-06 00:43 -30.21852 -61.68600 17920 ft 198 kts 322°
2026-05-06 00:43 -30.20673 -61.69420 17920 ft 198 kts 322°
2026-05-06 00:44 -30.19492 -61.70241 17916 ft 198 kts 322°
2026-05-06 00:44 -30.18315 -61.71060 17920 ft 198 kts 322°
2026-05-06 00:44 -30.17135 -61.71881 17920 ft 198 kts 322°
2026-05-06 00:44 -30.15953 -61.72703 17920 ft 198 kts 322°
2026-05-06 00:45 -30.14773 -61.73524 17920 ft 198 kts 322°
2026-05-06 00:45 -30.13594 -61.74342 17920 ft 198 kts 322°
2026-05-06 00:45 -30.12433 -61.75151 17920 ft 198 kts 322°
2026-05-06 00:45 -30.11252 -61.75969 17920 ft 198 kts 322°
2026-05-06 00:46 -30.10069 -61.76790 17917 ft 198 kts 322°
2026-05-06 00:46 -30.08889 -61.77610 17918 ft 198 kts 322°
2026-05-06 00:46 -30.07708 -61.78429 17919 ft 198 kts 322°
2026-05-06 00:46 -30.06527 -61.79247 17916 ft 198 kts 322°
2026-05-06 00:47 -30.05347 -61.80066 17919 ft 198 kts 322°
2026-05-06 00:47 -30.04164 -61.80887 17920 ft 198 kts 322°
2026-05-06 00:47 -30.02982 -61.81705 17920 ft 198 kts 322°
2026-05-06 00:47 -30.01799 -61.82524 17916 ft 198 kts 322°
2026-05-06 00:48 -30.00615 -61.83343 17920 ft 198 kts 322°
2026-05-06 00:48 -29.99434 -61.84161 17920 ft 198 kts 322°
2026-05-06 00:48 -29.98252 -61.84980 17916 ft 198 kts 322°
2026-05-06 00:48 -29.97071 -61.85797 17920 ft 198 kts 322°
2026-05-06 00:49 -29.95903 -61.86605 17920 ft 198 kts 322°
2026-05-06 00:49 -29.94722 -61.87423 17920 ft 198 kts 322°
2026-05-06 00:49 -29.93542 -61.88238 17917 ft 198 kts 322°
2026-05-06 00:49 -29.92361 -61.89055 17920 ft 198 kts 322°
2026-05-06 00:50 -29.91178 -61.89872 17920 ft 198 kts 322°
2026-05-06 00:50 -29.89998 -61.90687 17920 ft 198 kts 322°
2026-05-06 00:50 -29.88815 -61.91504 17920 ft 198 kts 322°
2026-05-06 00:50 -29.87632 -61.92322 17917 ft 198 kts 321°
2026-05-06 00:51 -29.86591 -61.93306 17914 ft 192 kts 309°
2026-05-06 00:51 -29.85636 -61.94381 17918 ft 192 kts 310°
2026-05-06 00:51 -29.84670 -61.95450 17919 ft 193 kts 310°
2026-05-06 00:51 -29.83697 -61.96512 17919 ft 193 kts 310°
2026-05-06 00:52 -29.82725 -61.97575 17920 ft 193 kts 310°
2026-05-06 00:52 -29.81765 -61.98626 17920 ft 193 kts 310°
2026-05-06 00:52 -29.80793 -61.99688 17920 ft 193 kts 310°
2026-05-06 00:52 -29.79819 -62.00753 17920 ft 193 kts 310°
2026-05-06 00:53 -29.78847 -62.01818 17918 ft 193 kts 310°
2026-05-06 00:53 -29.77872 -62.02882 17920 ft 193 kts 310°
2026-05-06 00:53 -29.76897 -62.03948 17920 ft 193 kts 310°
2026-05-06 00:53 -29.75923 -62.05012 17919 ft 192 kts 310°
2026-05-06 00:54 -29.74952 -62.06074 17918 ft 192 kts 310°
2026-05-06 00:54 -29.73981 -62.07133 17917 ft 192 kts 310°
2026-05-06 00:54 -29.73008 -62.08195 17917 ft 193 kts 310°
2026-05-06 00:54 -29.72037 -62.09256 17918 ft 193 kts 310°
2026-05-06 00:55 -29.71063 -62.10319 17920 ft 193 kts 310°
2026-05-06 00:55 -29.70101 -62.11368 17916 ft 192 kts 310°
2026-05-06 00:55 -29.69116 -62.12443 17919 ft 193 kts 310°
2026-05-06 00:55 -29.68151 -62.13493 17918 ft 193 kts 310°
2026-05-06 00:56 -29.67175 -62.14557 17917 ft 193 kts 310°
2026-05-06 00:56 -29.66194 -62.15624 17916 ft 193 kts 310°
2026-05-06 00:56 -29.65218 -62.16689 17920 ft 194 kts 310°
2026-05-06 00:56 -29.64238 -62.17757 17918 ft 194 kts 311°
2026-05-06 00:57 -29.63261 -62.18821 17920 ft 194 kts 310°
2026-05-06 00:57 -29.62281 -62.19886 17920 ft 193 kts 310°
2026-05-06 00:57 -29.61302 -62.20952 17920 ft 194 kts 310°
2026-05-06 00:57 -29.60323 -62.22016 17918 ft 194 kts 311°
2026-05-06 00:58 -29.59344 -62.23081 17917 ft 194 kts 310°
2026-05-06 00:58 -29.58365 -62.24145 17921 ft 194 kts 310°
2026-05-06 00:58 -29.57385 -62.25209 17920 ft 193 kts 310°
2026-05-06 00:58 -29.56422 -62.26257 17920 ft 193 kts 311°
2026-05-06 00:59 -29.55445 -62.27316 17920 ft 193 kts 311°
2026-05-06 00:59 -29.54468 -62.28377 17920 ft 193 kts 310°
2026-05-06 00:59 -29.53491 -62.29438 17920 ft 193 kts 311°
2026-05-06 00:59 -29.52513 -62.30499 17916 ft 193 kts 311°
2026-05-06 01:00 -29.51534 -62.31562 17916 ft 194 kts 311°
2026-05-06 01:00 -29.50555 -62.32625 17919 ft 194 kts 311°
2026-05-06 01:00 -29.49575 -62.33688 17920 ft 194 kts 311°
2026-05-06 01:00 -29.48593 -62.34751 17919 ft 194 kts 311°
2026-05-06 01:01 -29.47615 -62.35812 17919 ft 193 kts 311°
2026-05-06 01:01 -29.46636 -62.36872 17917 ft 194 kts 311°
2026-05-06 01:01 -29.45655 -62.37935 17919 ft 194 kts 311°
2026-05-06 01:01 -29.44672 -62.39000 17919 ft 194 kts 311°
2026-05-06 01:02 -29.43690 -62.40061 17920 ft 194 kts 311°
2026-05-06 01:02 -29.42705 -62.41127 17920 ft 194 kts 311°
2026-05-06 01:02 -29.41724 -62.42189 17920 ft 194 kts 311°
2026-05-06 01:02 -29.40743 -62.43251 17920 ft 194 kts 311°
2026-05-06 01:03 -29.39774 -62.44298 17917 ft 194 kts 311°
2026-05-06 01:03 -29.38791 -62.45361 17920 ft 194 kts 311°
2026-05-06 01:03 -29.37808 -62.46423 17917 ft 194 kts 311°
2026-05-06 01:03 -29.36825 -62.47485 17914 ft 194 kts 311°
2026-05-06 01:04 -29.35841 -62.48548 17920 ft 194 kts 311°
2026-05-06 01:04 -29.34858 -62.49610 17916 ft 194 kts 311°
2026-05-06 01:04 -29.33873 -62.50673 17920 ft 194 kts 311°
2026-05-06 01:04 -29.32891 -62.51733 17920 ft 194 kts 311°
2026-05-06 01:05 -29.31907 -62.52794 17920 ft 194 kts 311°
2026-05-06 01:05 -29.30921 -62.53857 17914 ft 194 kts 311°
2026-05-06 01:05 -29.29936 -62.54920 17920 ft 194 kts 311°
2026-05-06 01:05 -29.28951 -62.55981 17920 ft 194 kts 311°
2026-05-06 01:06 -29.27980 -62.57028 17921 ft 193 kts 311°
2026-05-06 01:06 -29.26999 -62.58086 17917 ft 194 kts 311°
2026-05-06 01:06 -29.26016 -62.59144 17916 ft 194 kts 311°
2026-05-06 01:06 -29.25032 -62.60203 17918 ft 194 kts 311°
2026-05-06 01:07 -29.24047 -62.61264 17917 ft 194 kts 311°
2026-05-06 01:07 -29.23061 -62.62325 17918 ft 195 kts 311°
2026-05-06 01:07 -29.22076 -62.63386 17921 ft 195 kts 311°
2026-05-06 01:07 -29.21082 -62.64455 17918 ft 196 kts 311°
2026-05-06 01:08 -29.20084 -62.65527 17921 ft 197 kts 312°
2026-05-06 01:08 -29.19083 -62.66603 17926 ft 198 kts 312°
2026-05-06 01:08 -29.18077 -62.67683 17926 ft 198 kts 312°
2026-05-06 01:08 -29.17069 -62.68767 17926 ft 199 kts 311°
2026-05-06 01:09 -29.16061 -62.69849 17926 ft 199 kts 312°
2026-05-06 01:09 -29.15050 -62.70935 17926 ft 199 kts 312°
2026-05-06 01:09 -29.14042 -62.72018 17926 ft 199 kts 312°
2026-05-06 01:09 -29.13030 -62.73103 17922 ft 200 kts 312°
2026-05-06 01:10 -29.12016 -62.74192 17926 ft 200 kts 312°
2026-05-06 01:10 -29.11003 -62.75279 17923 ft 200 kts 312°
2026-05-06 01:10 -29.09989 -62.76366 17923 ft 200 kts 312°
2026-05-06 01:10 -29.08973 -62.77454 17921 ft 200 kts 312°
2026-05-06 01:11 -29.07972 -62.78528 17924 ft 200 kts 312°
2026-05-06 01:11 -29.06956 -62.79616 17922 ft 200 kts 312°
2026-05-06 01:11 -29.05941 -62.80702 17926 ft 200 kts 312°
2026-05-06 01:11 -29.04924 -62.81791 17926 ft 200 kts 312°
2026-05-06 01:12 -29.03904 -62.82884 17921 ft 200 kts 312°
2026-05-06 01:12 -29.02887 -62.83971 17926 ft 200 kts 312°
2026-05-06 01:12 -29.01871 -62.85059 17923 ft 200 kts 312°
2026-05-06 01:12 -29.00854 -62.86147 17925 ft 200 kts 312°
2026-05-06 01:13 -28.99837 -62.87233 17925 ft 200 kts 312°
2026-05-06 01:13 -28.98836 -62.88305 17926 ft 200 kts 312°
2026-05-06 01:13 -28.97820 -62.89390 17919 ft 200 kts 312°
2026-05-06 01:13 -28.96803 -62.90477 17926 ft 200 kts 312°
2026-05-06 01:14 -28.94766 -62.92652 17924 ft 200 kts 312°
2026-05-06 01:14 -28.93748 -62.93738 17926 ft 201 kts 312°
2026-05-06 01:14 -28.92729 -62.94826 17926 ft 201 kts 312°
2026-05-06 01:15 -28.91706 -62.95917 17914 ft 202 kts 312°
2026-05-06 01:15 -28.90681 -62.97010 17909 ft 201 kts 312°
2026-05-06 01:15 -28.89657 -62.98103 17913 ft 201 kts 312°
2026-05-06 01:15 -28.88635 -62.99192 17913 ft 201 kts 312°
2026-05-06 01:16 -28.87613 -63.00279 17914 ft 201 kts 313°
2026-05-06 01:16 -28.86591 -63.01368 17914 ft 201 kts 312°
2026-05-06 01:16 -28.85569 -63.02458 17914 ft 201 kts 312°
2026-05-06 01:16 -28.84546 -63.03547 17908 ft 201 kts 312°
2026-05-06 01:17 -28.83524 -63.04635 17912 ft 201 kts 312°
2026-05-06 01:17 -28.82501 -63.05723 17915 ft 201 kts 312°
2026-05-06 01:17 -28.81479 -63.06810 17909 ft 201 kts 312°
2026-05-06 01:17 -28.80459 -63.07896 17914 ft 200 kts 312°
2026-05-06 01:18 -28.79438 -63.08981 17913 ft 201 kts 312°
2026-05-06 01:18 -28.78417 -63.10066 17914 ft 201 kts 312°
2026-05-06 01:18 -28.77409 -63.11139 17914 ft 201 kts 312°
2026-05-06 01:18 -28.76384 -63.12226 17910 ft 201 kts 312°
2026-05-06 01:19 -28.75362 -63.13313 17912 ft 201 kts 312°
2026-05-06 01:19 -28.74339 -63.14399 17912 ft 201 kts 312°
2026-05-06 01:19 -28.73314 -63.15487 17914 ft 201 kts 313°
2026-05-06 01:19 -28.72291 -63.16572 17913 ft 201 kts 313°
2026-05-06 01:20 -28.71264 -63.17663 17910 ft 201 kts 313°
2026-05-06 01:20 -28.70237 -63.18751 17911 ft 201 kts 313°
2026-05-06 01:20 -28.69224 -63.19825 17914 ft 201 kts 313°
2026-05-06 01:20 -28.68199 -63.20912 17914 ft 202 kts 313°
2026-05-06 01:21 -28.67170 -63.22002 17914 ft 202 kts 313°
2026-05-06 01:21 -28.66144 -63.23088 17913 ft 201 kts 313°
2026-05-06 01:21 -28.65117 -63.24175 17912 ft 201 kts 313°
2026-05-06 01:21 -28.64089 -63.25264 17912 ft 202 kts 313°
2026-05-06 01:22 -28.63410 -63.25984 17909 ft 202 kts 313°
2026-05-06 01:22 -28.62380 -63.27073 17902 ft 202 kts 313°
2026-05-06 01:22 -28.61001 -63.28532 17894 ft 202 kts 313°
2026-05-06 01:22 -28.60320 -63.29252 17894 ft 202 kts 313°
2026-05-06 01:23 -28.59294 -63.30337 17894 ft 202 kts 313°
2026-05-06 01:23 -28.58267 -63.31423 17894 ft 202 kts 313°
2026-05-06 01:23 -28.57240 -63.32508 17893 ft 202 kts 313°
2026-05-06 01:23 -28.56211 -63.33595 17894 ft 202 kts 313°
2026-05-06 01:24 -28.55183 -63.34681 17893 ft 202 kts 313°
2026-05-06 01:24 -28.54153 -63.35769 17893 ft 202 kts 313°
2026-05-06 01:24 -28.53122 -63.36856 17893 ft 202 kts 313°
2026-05-06 01:24 -28.52091 -63.37944 17893 ft 202 kts 313°